Location: Andrest
(43.3200°N, 0.0641°E)
Time: 14:23:04
(UTC+00:00)

USA 215 - Pass Details

Date: 01 December 2020
Orbit: 1098 x 1110 km, 123.0° (Epoch: 22 January)

Event Time Altitude Azimuth Distance (km) Brightness Sun altitude
Exits shadow 16:59:29 - 68° (ENE) 3,210 5.0 -6.4°
Reaches altitude 10° 17:00:17 10° 72° (ENE) 2,974 4.9 -6.5°
Maximum altitude 17:05:25 24° 124° (SE) 2,110 4.5 -7.4°
Drops below altitude 10° 17:10:32 10° 176° (S) 2,963 5.8 -8.3°
Sets 17:13:34 0° 189° (S) 3,917 6.6 -8.8°
